Powrót do katalogu

CZ-4 DEB

AktywnySSO
NORAD 26658·DEBRIS·🇨🇳 China

Wystrzelony Oct 14, 1999 z Taiyuan Satellite Launch Center

Loading…

Następne Przeloty (najbliższe 24 godziny)

TLE

ŚwieżeSource: Space-Track

Epoka: Sep 14, 2026, 09:30 UTC

1 26658U 99057LQ  26257.39610105  .00001103  00000-0  25354-3 0  9991
2 26658  98.4997 312.3507 0065797 167.5983 255.5998 14.56209382374163

Śledź CZ-4 DEB w czasie rzeczywistym z AllMySat

Download on the App Store